STARLINK-32491, 62043

Orbit data source: Space-Track

STARLINK-32491, 62043 is a payload satellite owned by SpaceX/Seattle (US) in LEO that was launched on Thu, 21 Nov 2024 UTC via an FALCON 9 launch vehicle from the Air Force Eastern Test Range (AFETR). Payload-class satellites include a variety of spacecraft equipped with specific instruments for various scientific and technological missions. These include communications satellites like Starlink; space stations such as the ISS; scientific satellites like the Hubble; Earth observation satellites from companies like Planet Labs, Umbra, and HawkEye 360; GPS; miniature CubeSats for education and research; and military/defense satellites.

Loading next visibility...
Identifier
62043, 2024-216M
Orbit
LEO
Country
Flag of USUS
Related business
Manufacturer
SpaceX/Seattle
Mission
Operational Commercial Communications
Bus & Motor
STARLINK V2M, Unknown motor
Mass
730 kg wet, ~700 kg dry
Launch date (UTC)
2024-11-21 (11 months ago)
Launch vehicle
FALCON 9
Launch site
Air Force Eastern Test Range (AFETR)
Object type
Payload
Rocket body
Debris
Shape & HBR
Box + 2 Pan, 17.7 m
Radar Cross Section
33.884 m², Large (>1 m²)

Expand to show TLE details & history
Last TLE update: 20 hours ago

TLE from 20 hours ago
0 STARLINK-32491
1 62043U 24216M   25302.22699334  .00031478  00000-0  11475-2 0  9993
2 62043  43.0098 286.2435 0001168 284.5768  75.4955 15.27609912 53686
Epoch: 2025-10-29T05:26Z
TLE epoch observation values (Epoch: 2025-10-29T05:26:52.224Z)
Latitude
0.00003°
Longitude
166.72277°
Altitude
482.535 km
Speed
7.626 km/s
True Right ascension
19h 04m 58s
True Declination
0° 00' 00"
Sunlit
Object was in daylight at epoch
Visualization orbit readout
Latitude
Unknown
Longitude
Unknown
Altitude
Unknown
Speed
Unknown
Apparent Right ascension
Unknown
Apparent Declination
Unknown
Sunlit
N/A
Visualization observer readout
Local Sidereal Time
21:13:26
Azimuth
Unknown
Elevation
Unknown
Doppler factor
Unknown
Orbital elements
Apogee altitude
485.705 km
Perigee altitude
484.101 km
Semi-major axis
6,863.04 km
Eccentricity
0.00012
Inclination
43.0098°
RAAN
286.2435°
Arg. of periapsis
284.5768°
True anomaly
75.50846°
Mean anomaly
75.4955°
Eccentric anomaly
75.50198°
Mean motion
3.81741 °/min
Orbital period
94.3 mins
BSTAR
0.0011475
Loading maneuver chart data...
Computing Atmospheric mass density...
Loading historical data...
Loading historical data...
Loading historical data...
Loading historical data...
Loading historical data...
Loading historical data...
Loading historical data...

Documentation

Showing up to 5 results
|